Akron, CO

1:07 PM MDT on May 25, 2018 (GMT -0600)
Akron-Washington County

Weather History for KAKO - September, 2012

Change the Weather History Date:

Saturday, September 29, 2012

  Actual Average Record
Temperature  
Mean Temperature 63 °F 57 °F  
Max Temperature 78 °F 71 °F 90 °F (1994)
Min Temperature 47 °F 43 °F 20 °F (1985)
Degree Days  
Heating Degree Days 2    
Month to date heating degree days 65  
Cooling Degree Days 0    
Month to date cooling degree days 107  
Growing Degree Days 12 (Base 50)    
Moisture  
Dew Point 49 °F    
Average Humidity 66    
Maximum Humidity 100    
Minimum Humidity 31    
Precipitation  
Precipitation 0.02 in 0.03 in 1.11 in (2014)
Month to date precipitation 0.77 1.12  
Year to date precipitation 7.10 14.61  
Sea Level Pressure  
Sea Level Pressure 30.09 in    
Wind  
Wind Speed 10 mph (South)    
Max Wind Speed 16 mph    
Max Gust Speed 20 mph    
Visibility 5 miles    
Events Fog    
T = Trace of Precipitation, MM = Missing Value Source: NWS Daily Summary

Daily Weather History Graph

Daily Weather History Graph

Search for Another Location

Airport or City:

Astronomy

Sep. 29, 2012 Rise Set
Actual Time 6:47 AM MDT 6:37 PM MDT
Civil Twilight 6:20 AM MDT 7:04 PM MDT
Nautical Twilight 5:49 AM MDT 7:36 PM MDT
Astronomical Twilight 5:17 AM MDT 8:07 PM MDT
Moon 6:11 PM MDT (9/29) 6:21 AM MDT (9/29)
Length of Visible Light 12h 43m
Length of Day
11h 49m
Full, 100% of the Moon is Illuminated
Sep 29
Full
Sep 29
Full
Oct 8
Last Quarter
Oct 15
New
Oct 21
First Quarter

Hourly Weather History & Observations

Time (MDT) Temp. Dew Point Humidity Pressure Visibility Wind Dir Wind Speed Gust Speed Precip Events Conditions
12:53 AM 53.1 °F 52.0 °F 96% 30.08 in 0.5 mi South 8.1 mph - N/A Fog Fog
1:53 AM 52.0 °F 51.1 °F 97% 30.08 in 0.2 mi South 11.5 mph - N/A Fog Fog
2:53 AM 51.1 °F 50.0 °F 96% 30.08 in 0.2 mi South 11.5 mph - 0.01 in Fog Fog
3:53 AM 50.0 °F 50.0 °F 100% 30.06 in 0.5 mi SSE 10.4 mph - N/A Fog Fog
4:05 AM 50.0 °F 48.2 °F 94% 30.17 in 1.2 mi SSE 10.4 mph - N/A   Mostly Cloudy
4:08 AM 50.0 °F 48.2 °F 94% 30.17 in 2.0 mi SSE 9.2 mph - N/A   Mostly Cloudy
4:15 AM 50.0 °F 48.2 °F 94% 30.17 in 4.0 mi SSE 9.2 mph - N/A   Scattered Clouds
4:37 AM 48.2 °F 48.2 °F 100% 30.17 in 1.5 mi SSE 11.5 mph - N/A   Partly Cloudy
4:39 AM 48.2 °F 48.2 °F 100% 30.17 in 1.0 mi SSE 11.5 mph - N/A   Mist
4:46 AM 48.2 °F 48.2 °F 100% 30.17 in 0.5 mi SSE 11.5 mph - N/A Fog Fog
4:53 AM 48.9 °F 48.0 °F 97% 30.08 in 0.2 mi SSE 12.7 mph - N/A Fog Fog
5:53 AM 48.9 °F 48.0 °F 97% 30.08 in 0.5 mi South 10.4 mph - 0.00 in Fog Fog
6:21 AM 48.2 °F 46.4 °F 93% 30.16 in 1.2 mi South 8.1 mph - N/A   Overcast
6:24 AM 48.2 °F 46.4 °F 93% 30.16 in 2.0 mi South 9.2 mph - N/A   Overcast
6:47 AM 48.2 °F 46.4 °F 93% 30.17 in 4.0 mi SSE 8.1 mph - N/A   Scattered Clouds
6:53 AM 48.0 °F 46.9 °F 96% 30.10 in 2.0 mi SSE 8.1 mph - N/A   Scattered Clouds
6:55 AM 48.2 °F 46.4 °F 93% 30.17 in 1.0 mi SSE 9.2 mph - N/A   Mist
7:02 AM 48.2 °F 46.4 °F 93% 30.17 in 0.2 mi SSE 8.1 mph - N/A Fog Fog
7:40 AM 48.2 °F 48.2 °F 100% 30.18 in 1.0 mi South 8.1 mph - N/A   Mist
7:53 AM 48.9 °F 48.0 °F 97% 30.12 in 0.8 mi South 9.2 mph - N/A   Overcast
8:01 AM 50.0 °F 48.2 °F 94% 30.18 in 1.2 mi South 9.2 mph - N/A   Mostly Cloudy
8:04 AM 50.0 °F 48.2 °F 94% 30.18 in 2.0 mi South 8.1 mph - N/A   Mostly Cloudy
8:10 AM 50.0 °F 50.0 °F 100% 30.18 in 5.0 mi South 6.9 mph - N/A   Scattered Clouds
8:53 AM 54.0 °F 52.0 °F 93% 30.10 in 10.0 mi South 9.2 mph - N/A   Clear
9:53 AM 63.0 °F 54.0 °F 72% 30.08 in 10.0 mi South 9.2 mph - N/A   Clear
10:53 AM 68.0 °F 53.1 °F 59% 30.05 in 10.0 mi South 10.4 mph - N/A   Clear
11:53 AM 71.1 °F 48.0 °F 44% 30.03 in 10.0 mi South 8.1 mph - N/A   Clear
12:53 PM 73.9 °F 46.9 °F 38% 30.01 in 10.0 mi Variable 4.6 mph - 0.01 in   Clear
1:53 PM 75.0 °F 45.0 °F 34% 29.98 in 10.0 mi East 3.5 mph - N/A   Clear
2:53 PM 77.0 °F 45.0 °F 32% 29.96 in 10.0 mi SSE 10.4 mph - N/A   Clear
3:53 PM 73.9 °F 44.1 °F 34% 29.95 in 10.0 mi ESE 3.5 mph - N/A   Clear
4:53 PM 75.9 °F 44.1 °F 32% 29.95 in 10.0 mi SSE 8.1 mph - N/A   Clear
5:53 PM 73.9 °F 44.1 °F 34% 29.96 in 10.0 mi SSE 6.9 mph - N/A   Clear
6:53 PM 68.0 °F 48.9 °F 50% 29.99 in 10.0 mi South 12.7 mph - N/A   Clear
7:53 PM 63.0 °F 50.0 °F 63% 30.02 in 10.0 mi South 10.4 mph - N/A   Clear
8:53 PM 61.0 °F 51.1 °F 70% 30.03 in 10.0 mi SSW 13.8 mph - N/A   Clear
9:53 PM 57.9 °F 52.0 °F 81% 30.03 in 10.0 mi SW 11.5 mph - N/A   Clear
10:53 PM 57.0 °F 52.0 °F 83% 30.01 in 10.0 mi SSW 9.2 mph - 0.00 in   Clear
11:53 PM 57.0 °F 53.1 °F 87% 30.00 in 10.0 mi WSW 13.8 mph - N/A   Clear